Location: Newark
(29.9790°N, 31.1340°E)
Time: 22:37:41
(UTC+00:00)

Vanguard 1 Rocket - Visible Passes

Search period start: 18 January 2020 00:00
Search period end: 28 January 2020 00:00
Orbit: 650 x 4226 km, 34.3° (Epoch: 17 January)

Date Brightness Start Highest point End Pass type
(mag) Time Alt. Az. Time Alt. Az. Time Alt. Az.
18 Jan 11.4 15:57:10 10° WNW 16:20:35 52° SW 16:42:33 10° SSE visible
18 Jan 11.7 18:37:04 10° W 18:50:00 17° SW 19:01:17 10° SSW visible
19 Jan 11.6 17:16:42 10° W 17:36:38 30° SW 17:54:14 10° S visible
20 Jan 11.6 16:00:23 10° WNW 16:22:34 44° SW 16:44:08 10° SSE visible
20 Jan 12.0 18:46:45 10° WSW 18:52:05 11° SW 18:57:09 10° SW visible
21 Jan 11.8 17:21:16 10° W 17:38:35 23° SW 17:54:31 10° S visible
22 Jan 11.8 16:03:55 10° W 16:24:33 36° SW 16:45:19 10° SSE visible
23 Jan 12.0 17:27:11 10° W 17:40:42 17° SW 17:53:37 10° SSW visible
24 Jan 11.9 16:07:56 10° W 16:26:39 29° SW 16:45:57 10° S visible
25 Jan 12.2 17:36:48 10° WSW 17:43:05 11° SW 17:49:17 10° SW visible
26 Jan 12.1 16:12:44 10° W 16:28:53 22° SW 16:45:50 10° S visible
